Wind_Speed
22 22 23 23 23 23 21 21 20 18 16 15 13 12 11 11 10 9 9 8 8 7 5 3 3 4 3 3 5 6 8 8 5 8 13 13 7 2 7 12 13 25 26 18 10 15 20
23 23 24 24 24 23 23 21 19 18 16 14 13 12 11 10 10 8 8 7 6 7 3 3 7 1 3 5 5 4 9 5 5 4 8 5 4 8 10 11 16 23 22 12 8 14 16
23 24 24 25 25 24 24 22 19 17 15 14 12 12 11 9 9 9 6 5 5 4 1 2 4 1 8 7 7 2 7 5 2 3 3 8 12 11 3 7 13 15 25 15 14 16 15
24 24 25 25 25 25 24 23 20 17 15 14 12 12 11 10 9 7 5 2 1 2 3 5 3 5 4 2 5 8 7 6 3 2 5 7 22 7 2 5 11 16 14 15 16 18 10
24 25 25 26 26 26 25 23 20 17 15 14 13 13 12 10 6 6 2 5 4 4 5 4 2 7 4 2 7 9 5 7 4 6 6 4 6 1 3 2 6 7 17 23 17 19 8
24 25 26 26 27 26 25 23 20 16 14 14 13 14 12 8 5 2 9 9 10 6 4 2 7 3 5 8 10 9 5 3 2 10 5 2 3 4 3 0 10 16 16 23 19 18 17
24 25 26 28 28 27 26 24 20 16 13 13 14 14 9 5 5 9 13 10 4 3 15 4 6 4 7 16 3 6 10 6 6 1 3 4 6 3 5 3 11 24 27 21 21 16 17
24 25 27 28 29 29 27 25 21 15 12 14 14 14 7 1 6 10 4 2 3 3 6 9 5 6 6 11 5 7 12 3 3 2 10 8 12 7 5 7 12 25 29 24 19 12 16
24 25 27 29 29 29 29 27 23 16 11 15 13 14 6 4 3 3 1 3 2 1 1 4 4 5 5 10 6 8 11 4 1 7 7 13 9 8 3 6 12 14 28 22 19 17 15
23 25 29 33 36 34 30 28 24 18 6 17 14 12 8 6 2 4 4 2 1 2 2 11 7 4 4 8 3 3 6 2 2 6 12 12 10 10 3 4 12 10 21 21 19 18 15
23 26 29 33 37 39 34 29 26 19 7 10 19 14 9 4 4 2 4 2 1 2 5 15 6 4 3 3 5 2 2 5 7 4 2 4 6 4 3 8 20 11 13 19 19 18 14
22 25 28 32 36 39 43 33 29 21 11 4 10 20 5 4 2 3 5 4 2 3 8 5 6 10 2 5 5 7 4 3 6 9 14 9 2 4 3 5 7 9 16 15 14 5 5
19 22 26 30 35 39 42 43 33 25 12 5 7 12 13 3 0 1 4 4 2 6 6 7 5 9 6 7 6 5 7 6 5 6 3 9 3 9 10 8 8 12 17 4 3 2 3
18 21 24 27 32 37 42 46 41 33 10 2 7 4 12 11 2 4 3 2 11 2 4 5 3 10 3 9 4 12 5 6 12 3 7 3 6 12 9 10 15 21 15 7 5 7 9
16 19 22 25 29 33 39 45 45 38 11 2 5 1 6 12 1 2 3 7 3 3 3 8 9 3 3 3 5 4 6 3 5 9 3 5 6 0 2 4 15 11 13 2 5 2 8
16 18 21 23 26 30 35 40 47 40 16 2 1 2 5 10 3 4 5 5 2 1 1 2 4 5 2 5 1 4 6 4 5 2 5 3 7 3 4 2 3 9 9 5 4 6 5
15 17 19 22 25 28 32 37 42 41 24 1 2 2 7 3 4 6 5 5 3 1 1 2 2 4 4 4 2 2 1 2 3 7 8 6 2 7 4 7 12 7 10 6 7 3 7
16 17 18 21 23 26 29 33 38 41 30 6 3 2 12 4 4 4 3 3 1 1 1 2 2 2 3 3 3 1 3 1 5 3 1 5 5 8 13 4 4 6 15 15 7 9 6
16 17 18 20 21 24 26 29 34 38 32 5 2 2 8 2 4 3 3 2 2 1 0 1 1 0 0 3 3 0 0 1 4 4 4 7 4 10 3 5 3 5 10 11 12 8 15
15 17 17 18 20 21 23 26 29 33 29 4 2 2 5 6 4 4 4 2 2 1 1 1 2 2 1 3 3 3 1 1 4 3 5 3 5 14 9 4 8 13 8 10 12 11 11
16 16 16 17 17 18 20 22 25 28 24 5 4 1 1 2 4 3 2 0 1 3 2 2 2 1 3 3 3 3 1 2 3 5 2 2 4 4 4 1 4 9 17 16 18 17 16
18 18 17 16 16 16 17 19 19 23 19 7 2 2 2 2 3 4 2 4 5 2 3 3 4 2 2 3 2 4 2 2 1 5 3 5 2 2 4 6 6 8 13 15 20 19 21
21 19 18 17 16 15 15 15 15 18 14 5 2 1 1 3 2 2 4 4 5 6 5 4 1 2 4 2 1 2 3 3 1 0 1 2 1 2 3 2 4 8 20 18 15 14 18
23 22 20 20 18 16 14 14 13 12 11 3 3 3 1 2 3 1 3 4 6 6 2 2 4 3 3 1 1 3 5 5 5 4 3 1 2 1 2 2 7 2 2 3 17 16 16
26 24 23 22 20 19 16 13 13 9 8 3 2 2 1 2 2 2 4 3 2 3 3 4 6 1 1 2 2 3 3 3 5 3 4 2 2 3 4 6 9 8 4 3 4 7 13
30 28 26 24 23 22 19 17 13 11 7 4 1 2 2 1 4 3 4 4 3 4 2 3 2 1 2 2 2 3 4 1 3 4 2 4 1 2 3 5 6 2 3 2 2 7 2
34 33 31 27 24 24 23 21 16 14 10 5 4 4 2 1 4 6 4 3 5 2 0 2 4 3 2 2 3 4 3 2 4 5 6 4 3 8 9 6 7 3 7 4 6 1 3
37 35 33 32 28 26 25 24 21 16 13 7 5 8 2 2 3 8 7 5 4 4 4 5 4 2 3 4 3 2 3 2 3 1 5 8 10 6 6 8 10 9 6 7 2 3 4
39 38 36 34 33 30 29 26 24 20 16 12 5 9 8 3 2 3 9 7 4 4 4 4 1 3 3 3 2 1 3 2 3 3 0 5 5 3 8 5 2 10 2 3 2 2 4
Wind_Direction
8 5 1 359 356 354 352 349 345 343 340 339 337 335 328 332 325 323 309 309 301 299 311 301 81 71 60 131 43 5 356 1 341 194 190 199 230 250 194 182 219 209 198 225 166 191 217
8 5 1 357 355 353 354 350 346 343 342 339 341 336 330 330 327 318 306 302 292 296 304 265 141 356 257 71 350 320 355 26 64 238 155 141 238 275 178 182 218 191 186 182 209 179 204
8 4 1 359 355 354 354 351 348 344 345 341 340 333 332 335 324 315 307 289 287 315 265 216 178 22 59 25 339 333 335 6 26 178 127 210 223 272 167 176 185 232 173 181 179 187 194
10 7 4 359 356 355 354 352 349 345 344 345 343 331 327 333 328 313 298 273 192 86 48 146 189 289 77 41 346 333 328 330 96 182 127 193 230 241 214 324 186 185 156 173 180 178 169
11 7 4 1 358 356 356 354 349 347 343 343 343 337 331 335 333 313 176 124 123 102 71 94 326 306 75 308 356 327 325 331 126 158 150 150 97 142 64 176 173 170 160 178 161 188 149
11 7 5 2 359 358 357 354 350 348 345 340 341 341 335 339 348 134 128 118 126 74 352 316 12 249 35 340 345 321 331 351 170 160 160 5 95 82 55 284 185 179 164 174 162 183 179
10 7 5 4 1 359 359 357 352 351 351 344 346 346 349 355 9 145 129 124 184 134 44 21 351 332 339 328 300 8 350 17 3 33 98 238 100 109 66 51 295 179 172 169 166 166 181
9 6 5 4 3 1 0 360 356 353 360 351 351 344 358 71 44 173 187 312 53 115 89 22 47 1 337 338 308 18 3 40 325 134 153 151 92 107 99 323 256 197 168 173 156 165 186
9 7 5 8 5 3 1 2 359 352 16 4 356 357 11 149 85 87 117 88 109 266 6 36 7 350 343 333 344 344 355 32 46 169 112 92 96 116 114 288 180 223 181 164 158 168 168
8 7 10 15 16 9 2 1 359 351 12 25 16 17 18 129 121 135 85 62 14 301 210 13 3 25 346 324 340 355 341 344 268 127 90 84 145 184 92 248 185 179 173 149 157 165 167
12 13 13 13 16 17 8 0 359 353 331 24 27 30 56 103 148 151 131 148 232 247 33 333 330 295 284 342 319 82 328 262 298 127 254 141 152 83 20 188 170 171 174 158 173 174 163
9 11 14 13 10 13 16 4 358 353 341 250 18 26 45 75 56 109 136 154 200 244 40 353 318 353 28 22 16 322 330 197 269 82 58 59 71 140 51 242 115 187 150 149 184 169 179
5 6 9 12 11 11 12 14 3 358 344 220 248 13 39 52 131 225 159 184 87 44 329 354 333 339 359 356 357 352 20 45 35 121 134 131 150 139 195 181 115 162 145 95 91 159 193
358 1 5 8 10 9 9 12 10 8 357 309 210 349 24 25 350 150 213 207 62 281 318 351 316 302 24 360 38 41 52 25 17 25 107 92 128 157 184 150 160 170 158 152 145 174 177
353 356 360 5 7 9 9 7 12 8 5 344 169 165 11 343 357 198 254 53 117 178 300 323 300 260 68 43 347 331 66 56 25 11 28 128 132 293 319 5 163 192 186 141 102 158 178
349 353 355 359 3 6 8 7 5 9 3 134 249 182 31 356 66 249 65 102 124 173 304 277 330 6 325 13 357 19 12 29 344 333 314 2 131 185 132 214 203 220 152 158 155 157 198
341 348 351 354 358 3 6 7 4 7 4 52 225 254 10 61 36 45 73 77 110 110 246 225 327 301 323 341 52 75 275 327 6 325 311 322 182 155 184 207 181 190 190 211 191 212 204
330 339 345 350 353 357 3 6 5 3 5 9 300 37 1 94 47 45 45 45 107 83 252 230 254 281 305 332 313 14 146 154 2 308 348 8 305 170 188 88 334 291 221 208 193 186 218
317 328 337 343 350 353 356 2 5 4 6 344 45 339 353 353 82 80 112 82 351 224 22 284 266 46 22 313 321 320 220 51 13 22 4 356 215 157 230 231 209 243 223 263 235 280 216
298 310 323 333 341 348 351 357 2 3 2 51 57 28 17 45 32 94 134 149 187 265 209 246 301 234 242 234 199 316 301 61 350 348 335 305 283 206 215 266 209 206 221 230 224 231 230
288 291 304 317 329 340 346 352 358 1 0 56 25 85 280 9 54 81 114 155 225 219 263 258 245 308 219 194 205 209 239 296 181 4 308 278 249 264 247 252 246 249 219 212 220 236 242
282 288 290 298 312 324 337 343 355 1 4 62 78 145 129 119 178 147 193 189 191 196 213 231 253 160 196 253 277 169 188 134 55 334 354 334 263 247 258 216 245 251 231 236 228 235 244
278 280 285 287 292 305 320 331 348 359 17 73 67 85 159 139 217 193 172 178 204 168 205 246 267 245 231 245 266 323 296 307 275 194 295 341 237 225 222 201 231 251 234 225 231 234 233
278 279 280 283 282 284 297 312 329 348 19 85 154 155 166 220 241 237 178 173 193 216 245 186 200 207 74 33 242 222 233 237 239 240 227 219 188 208 267 220 231 263 62 293 233 232 221
273 273 273 274 277 278 280 290 303 320 343 23 144 204 192 229 210 192 188 197 198 214 240 229 194 159 83 210 268 260 198 213 199 178 203 249 235 197 225 221 319 282 216 205 191 268 231
264 265 266 268 270 272 271 270 276 288 301 307 246 193 245 172 223 107 160 178 219 208 203 217 125 150 217 253 229 244 240 113 181 175 171 166 10 262 164 225 235 73 159 124 134 257 182
264 262 261 259 260 263 264 262 257 261 265 260 248 207 225 219 187 160 193 175 156 144 293 138 165 163 254 214 236 232 230 357 215 200 173 178 195 219 213 242 276 144 148 144 171 237 106
260 259 259 260 258 254 253 254 253 246 249 233 247 211 225 250 225 198 179 156 147 203 189 143 146 182 169 214 248 245 260 182 256 158 190 183 176 195 195 218 261 142 112 198 99 100 129
266 263 259 258 257 252 249 249 247 240 231 224 242 223 203 222 298 225 234 238 227 184 135 178 10 154 174 196 217 287 246 194 276 262 320 235 228 198 207 214 86 193 4 129 171 149 176
Height
816 811 807 802 798 793 789 786 783 779 775 772 770 767 764 763 761 759 756 756 754 753 752 750 749 748 748 747 748 750 748 745 740 742 743 745 751 747 744 739 740 738 737 726 722 726 727
816 812 807 802 797 793 788 785 782 777 774 771 768 766 763 762 759 757 756 755 753 753 752 751 748 749 747 746 751 750 749 747 744 742 744 744 747 745 742 744 751 732 734 735 731 732 730
817 812 807 803 797 792 788 783 780 775 772 769 767 764 762 760 758 756 754 754 754 753 753 750 750 748 746 753 751 751 749 748 747 745 742 746 750 747 733 736 740 736 738 738 733 734 732
818 813 808 803 797 792 787 783 778 775 772 769 766 763 760 758 757 756 754 754 755 754 753 752 752 750 747 753 752 750 750 748 747 746 745 746 752 749 738 745 744 730 734 742 731 732 732
818 813 808 803 797 791 786 781 777 774 771 768 765 762 759 757 757 755 754 755 757 756 755 754 753 751 749 753 753 750 751 748 748 747 748 746 747 750 746 741 735 729 737 733 736 729 737
819 813 808 803 796 790 786 781 776 772 770 766 763 759 757 757 757 755 756 757 758 759 758 756 755 753 753 753 755 752 749 748 746 746 746 743 747 751 757 756 737 740 738 724 736 734 733
820 814 808 803 796 790 786 781 775 771 768 765 762 757 757 757 756 757 757 758 760 759 764 772 770 764 761 758 755 752 749 747 745 744 744 742 741 746 756 763 751 726 721 728 728 731 736
820 815 809 803 797 791 786 781 775 770 767 763 761 757 756 757 755 757 759 756 762 763 768 773 770 767 764 762 754 752 753 750 752 740 736 733 745 759 765 761 752 731 720 725 728 736 734
821 816 810 804 798 792 786 780 775 771 768 763 760 756 756 756 755 757 760 764 763 762 757 774 774 772 771 767 760 756 756 755 756 738 723 724 753 760 768 764 744 742 719 721 736 735 730
822 817 812 805 799 792 786 780 775 770 768 764 759 755 754 756 757 757 761 764 762 762 749 776 773 775 774 768 762 761 760 760 754 726 720 740 755 754 758 757 741 743 708 724 739 740 755
822 817 812 806 800 793 786 780 774 769 767 766 761 756 755 755 755 757 762 762 762 763 736 777 776 773 772 770 768 756 761 757 738 726 727 747 741 744 749 741 728 732 715 726 737 738 744
823 818 812 807 801 795 787 779 774 768 764 764 763 760 756 758 756 759 760 763 764 747 755 778 776 772 767 765 767 764 759 756 747 727 723 735 741 742 753 738 735 729 726 734 738 742 770
823 819 814 807 801 795 788 780 772 766 761 760 761 761 757 757 756 757 759 761 744 754 773 781 785 772 766 773 768 761 754 752 751 743 745 742 740 741 745 739 733 728 735 770 781 789 779
822 819 814 808 802 796 788 781 772 765 760 759 760 761 759 757 756 757 759 750 752 793 788 784 780 769 769 772 763 755 756 762 760 748 734 744 754 736 729 729 730 727 731 758 775 776 763
822 818 813 808 803 797 789 781 774 766 761 759 760 760 761 758 755 757 752 761 781 798 800 795 779 757 753 767 770 754 764 773 781 772 754 737 746 740 738 730 727 738 739 730 748 742 753
821 818 813 808 803 797 790 783 774 767 761 759 761 759 760 756 755 754 757 788 793 799 803 796 779 776 769 778 765 768 762 782 784 778 772 741 746 738 740 737 735 729 726 751 743 767 762
820 817 813 808 803 797 791 784 776 768 761 759 758 752 760 758 756 758 775 788 794 800 802 798 791 787 781 786 786 785 783 779 778 775 764 750 730 747 741 738 737 739 738 736 731 738 753
819 816 813 808 803 797 792 785 777 769 763 760 756 755 760 758 764 782 788 791 802 798 800 798 798 793 789 784 778 780 778 778 780 781 768 756 747 741 739 740 742 740 730 729 736 742 737
818 816 812 809 804 799 793 787 780 772 765 763 765 762 761 756 775 788 796 799 800 796 798 795 791 794 794 789 782 775 775 779 779 781 780 767 734 743 750 743 741 740 731 728 722 726 734
814 813 811 807 805 800 795 789 783 776 769 766 771 780 770 775 788 784 788 792 794 802 798 799 796 795 790 785 787 776 773 780 782 782 784 782 749 729 734 728 726 738 739 737 735 737 732
812 809 808 807 802 799 796 790 784 778 772 771 779 794 797 784 795 802 799 807 800 797 801 799 792 795 793 784 776 773 778 777 782 783 783 776 756 749 739 740 740 727 730 734 736 732 731
809 807 805 803 802 799 795 793 787 782 775 776 782 789 801 807 807 798 801 800 796 802 802 798 797 800 803 794 788 785 792 785 784 787 785 788 769 757 750 743 743 741 734 728 726 725 720
806 804 803 801 799 798 794 792 788 785 779 782 788 790 788 799 801 790 783 791 792 795 798 796 798 799 798 795 797 799 800 799 797 798 792 792 781 772 746 746 751 748 729 726 724 720 717
802 801 800 799 796 795 794 792 789 788 783 783 785 787 787 780 788 783 795 791 790 792 794 794 798 800 800 803 804 803 802 800 798 795 795 789 784 775 752 764 744 713 735 728 716 711 713
796 795 795 794 794 792 792 790 789 787 786 782 784 786 784 780 781 791 796 795 795 796 798 794 794 798 801 799 793 787 784 792 790 790 794 794 786 764 749 742 728 717 730 728 723 709 711
786 788 788 788 788 788 787 787 785 785 785 784 783 784 784 784 775 781 786 794 786 790 798 798 801 802 801 792 788 772 751 764 778 790 791 792 793 779 772 751 728 718 740 743 736 722 717
778 779 779 780 780 782 783 782 781 781 781 782 781 782 784 786 776 781 779 781 788 792 785 797 800 802 802 791 781 767 752 788 759 767 787 786 787 775 760 758 736 729 745 747 728 715 733
768 769 771 771 772 774 775 777 778 778 779 780 778 779 782 780 773 776 777 781 788 784 773 795 794 800 798 793 778 763 771 772 776 764 770 765 763 766 756 758 745 740 752 734 729 739 738
758 760 761 762 763 766 768 770 772 774 774 776 779 776 776 780 776 775 775 774 773 773 775 790 782 783 778 779 785 779 774 786 770 747 787 767 743 733 737 726 731 737 732 737 738 733 739